#timestamp,LO_Frequency,Hit 
1502391615.4,286047004.7,N
1502391635.3,286047004.5,N
1502391655.1,286047004.9,N
1502391656.0,286047004.9,N
1502391675.8,286047003.5,N
1502391695.7,286047002.9,N
1502391715.5,286047004.6,N
1502391735.3,286047005.7,N
1502391755.1,286047007.6,N
1502391775.9,286047005.8,N
1502391795.7,286047005.1,N
1502391815.5,286047005.1,N
1502391835.4,286047003.6,N
1502391855.2,286047000.2,N
1502391875.0,286047000.9,N
1502391875.9,286047000.9,N
1502391895.8,286047000.7,N
1502391915.6,286046999.3,N
1502391935.4,286046998.9,N
1502391955.3,286047000.5,N
1502391975.1,286047002.8,N
1502391976.0,286047002.8,N
1502391995.8,286047002.8,N
1502392015.7,286047002.6,N
1502392035.5,286047002.2,N
1502392055.3,286047001.5,N
1502392075.2,286047002.1,N
1502392095.9,286047001.6,N
1502392115.7,286047002.4,N
1502392135.5,286047002.6,N
1502392155.4,286047002.5,N
1502392175.2,286047002.8,N
1502392195.0,286046999.7,N
1502392195.9,286046999.7,N
1502392215.8,286046999.9,N
1502392235.6,286047002.3,N
1502392255.4,286047002.7,N
1502392275.3,286047001.5,N
1502392295.1,286047003.4,N
1502392315.8,286047005.8,P
1502392335.7,286047004.0,N
1502392355.5,286047003.8,N
1502392375.3,286047004.3,P
1502392395.2,286046998.4,P
1502392415.0,286046998.5,N
1502392415.9,286046998.5,N
1502392435.7,286047000.4,N
1502392455.6,286047001.9,N
1502392475.4,286047001.6,N
1502392495.2,286047000.3,N
1502392515.1,286047001.1,N
1502392535.0,286046998.8,N
1502392535.9,286046998.8,N
1502392555.7,286046996.8,N
1502392575.6,286046997.0,N
1502392595.4,286046998.7,N
1502392615.2,286046998.8,N
1502392635.1,286047004.4,N
1502392636.0,286047004.4,N
1502392655.8,286047000.3,N
1502392675.6,286046998.6,N
1502392695.5,286046997.8,N
1502392715.3,286046999.1,N
1502392735.1,286046999.2,N
1502392755.9,286046996.9,N
1502392775.7,286046997.0,N
1502392795.5,286046996.9,N
1502392815.4,286046996.5,N
1502392835.2,286046999.4,N
1502392855.0,286046995.7,N
1502392855.9,286046995.7,N
1502392875.7,286046995.9,N
1502392895.6,286046993.5,N
1502392915.4,286046992.0,P
1502392935.3,286046993.7,N
1502392955.1,286046993.3,N
1502392956.0,286046993.3,N
1502392975.8,286046991.7,P
1502392995.7,286046999.0,N
1502393015.5,286047001.9,N
1502393035.3,286047004.4,N
1502393055.2,286047003.5,N
1502393075.9,286047001.3,N
1502393095.7,286047001.7,N
1502393115.5,286047001.8,N
1502393135.4,286047001.7,N
1502393155.2,286047001.9,N
1502393175.0,286047002.8,N
1502393175.9,286047002.8,N
1502393195.8,286047002.6,N
1502393215.6,286047001.3,N
1502393235.4,286047002.7,N
1502393255.3,286047002.6,N
1502393275.1,286047004.0,N
1502393295.8,286047005.4,N
1502393315.7,286047007.5,N
1502393335.5,286047004.8,N
1502393355.3,286047004.9,N
1502393375.2,286047005.1,N
1502393395.9,286047003.3,N
1502393415.7,286047003.8,N
1502393435.6,286047003.1,N
1502393455.4,286047005.4,N
1502393475.2,286047004.9,N
1502393495.0,286047005.6,N
1502393495.9,286047005.6,N
1502393515.8,286047005.8,N
1502393535.6,286047004.1,N
1502393555.4,286047002.9,N
1502393575.3,286047001.4,N
1502393595.1,286047004.3,N
1502393615.8,286047002.5,N
1502393635.7,286047005.6,P
1502393655.5,286047002.3,N
1502393675.3,286047000.3,N
1502393695.2,286047004.3,N
1502393715.9,286047004.0,N
1502393735.7,286047002.1,N
1502393755.6,286047002.8,N
1502393775.4,286047000.3,N
1502393795.2,286047004.4,N
1502393815.1,286047001.6,N
1502393816.0,286047001.6,N
1502393835.8,286047004.3,N
1502393855.6,286047000.1,N
1502393875.5,286047000.5,N
1502393895.3,286046998.7,N
1502393915.1,286047000.1,N
1502393935.8,286046999.2,N
1502393955.7,286046999.7,N
1502393975.5,286047001.9,N
1502393995.3,286046999.8,N
1502394015.2,286046999.9,N
1502394035.9,286046998.4,N
1502394055.7,286046996.5,N
1502394075.6,286046998.8,N
1502394095.4,286047000.6,N
1502394115.2,286046999.5,N
1502394135.1,286046997.1,N
1502394136.0,286046997.1,N
1502394155.8,286046998.3,N
1502394175.6,286046999.4,N
1502394195.5,286046999.4,N
1502394215.3,286046997.6,N
1502394235.1,286046998.0,N
1502394255.8,286046998.0,N
1502394275.7,286046996.5,N
1502394295.5,286046995.2,N
1502394315.3,286046996.8,N
1502394335.2,286046998.3,N
1502394355.9,286046999.6,N
1502394375.7,286046997.1,N
1502394395.6,286046997.9,N
1502394415.4,286046996.9,N
1502394435.2,286046995.1,P
1502394455.1,286046998.4,N
1502394456.0,286046998.4,N
1502394475.8,286046998.6,N
1502394495.6,286047000.7,N
1502394515.5,286046999.4,N
1502394535.3,286046996.1,N
1502394555.1,286046995.1,N
1502394575.9,286046991.8,P
1502394595.7,286046996.3,N
1502394615.5,286046993.7,N
1502394635.4,286046996.4,N
1502394655.2,286046994.3,N
1502394675.0,286046994.5,N
1502394675.9,286046994.5,N
1502394695.8,286046996.3,N
1502394715.6,286046991.8,P
1502394735.4,286046993.7,P
1502394755.3,286046998.0,N
1502394775.1,286046999.6,N
1502394795.8,286046998.5,N
1502394815.7,286047001.0,N
1502394835.5,286047004.3,N
1502394855.3,286047001.4,N
1502394875.2,286047004.0,N
1502394895.9,286047005.3,N
1502394915.7,286047005.5,N
1502394935.6,286047003.3,N
1502394955.4,286047004.1,N
1502394975.2,286047004.8,N
1502394995.0,286047006.8,N
1502394996.0,286047006.8,N
1502395015.8,286047007.0,N
1502395035.6,286047007.5,N
1502395055.4,286047005.4,N
1502395075.3,286047007.3,N
1502395095.1,286047008.8,N
1502395115.8,286047010.4,N
1502395135.7,286047009.4,N
1502395155.5,286047010.5,N
1502395175.3,286047007.9,N
1502395195.2,286047009.2,N
